User: anonymous   Login
Location: Bourg-d�Oueil
(42.8588°N, 0.4991°E)
Time: 02:06:01
(UTC+00:00)
Language:

Cosmos 2263 Rocket - Orbit

View from above orbital plane
View from above orbital plane
View from above satellite
View from above satellite

Ground track
Ground track

The orbit data is extracted from the following two-line orbital elements,

1 22803U 93059B   21268.52218001 -.00000227  00000-0 -88988-4 0  9997
2 22803  70.9906 199.1579 0016863 175.6614 184.4659 14.16844147449434
Epoch (UTC): 25 September 2021 12:31:56
Eccentricity: 0.0016863
inclination: 70.9906°
perigee height: 824 km
apogee height: 848 km
right ascension of ascending node: 199.1579°
argument of perigee: 175.6614°
revolutions per day: 14.16844147
mean anomaly at epoch: 184.4659°
orbit number at epoch: 44943

The dashed part of the orbit path shows where the satellite is in the earth's shadow,  

DLR